This is the latest recevied weather packets stored in our database for station/object AB4KN. If no packets are shown the sender has not sent any weather packets the latest 10 day(s).
| Time | Temp. | Humidity | Pressure | Rain* | Wind** | Luminosity | Snow |
|---|---|---|---|---|---|---|---|
| 1777914516 | 23.89° C | 36% | 1022.4 hPa | 0 mm | - | 699 W/m² | - |
| 1777914213 | 23.89° C | 35% | 1022.3 hPa | 0 mm | - | 754 W/m² | - |
| 1777913909 | 23.89° C | 34% | 1022.4 hPa | 0 mm | - | 787 W/m² | - |
| 1777913606 | 24.44° C | 35% | 1022.6 hPa | 0 mm | - | 789 W/m² | - |
| 1777913302 | 24.44° C | 35% | 1022.5 hPa | 0 mm | - | 795 W/m² | - |
| 1777912999 | 23.33° C | 39% | 1022.4 hPa | 0 mm | - | 801 W/m² | - |
| 1777912695 | 22.78° C | 36% | 1022.5 hPa | 0 mm | - | 789 W/m² | - |
| 1777912391 | 22.22° C | 37% | 1022.7 hPa | 0 mm | - | 790 W/m² | - |
| 1777912088 | 22.78° C | 37% | 1023 hPa | 0 mm | - | 809 W/m² | - |
| 1777911783 | 22.22° C | 40% | 1022.7 hPa | 0 mm | - | 829 W/m² | - |
| 1777911480 | 22.22° C | 38% | 1023 hPa | 0 mm | - | 829 W/m² | - |
| 1777911177 | 21.67° C | 40% | 1023.1 hPa | 0 mm | - | 830 W/m² | - |
| 1777910875 | 21.67° C | 40% | 1023.1 hPa | 0 mm | - | 825 W/m² | - |
| 1777910571 | 21.11° C | 41% | 1023 hPa | 0 mm | - | 178 W/m² | - |
| 1777910269 | 21.11° C | 43% | 1023.2 hPa | 0 mm | - | 252 W/m² | - |
| 1777909965 | 20.56° C | 42% | 1023.2 hPa | 0 mm | - | 320 W/m² | - |
| 1777909662 | 20.56° C | 42% | 1023.1 hPa | 0 mm | - | 136 W/m² | - |
| 1777909359 | 21.11° C | 42% | 1023 hPa | 0 mm | - | 564 W/m² | - |
| 1777909057 | 20.56° C | 43% | 1023.1 hPa | 0 mm | - | 161 W/m² | - |
| 1777908755 | 21.11° C | 45% | 1023.3 hPa | 0 mm | - | 687 W/m² | - |
| 1777908451 | 21.11° C | 44% | 1023.4 hPa | 0 mm | - | 165 W/m² | - |
| 1777908148 | 20.56° C | 45% | 1023.5 hPa | 0 mm | - | 123 W/m² | - |
| 1777907844 | 20° C | 45% | 1023.6 hPa | 0 mm | - | 180 W/m² | - |
| 1777907540 | 20° C | 46% | 1023.4 hPa | 0 mm | - | 63 W/m² | - |
| 1777907236 | 20° C | 46% | 1023.7 hPa | 0 mm | - | 76 W/m² | - |
* Rain latest hour (hover to see other rain measurements)
** Current wind speed in m/s (hover to see current wind gust speed)